| time (UTC) | temp C | wind direction | speed KPH | gust KPH | rain 1hr cm | rain 24hr cm | rain mn cm | humidity % | barometer mb |
| 20260503050034 | 5 | 360 | 8.0 | 17.7 | 0.00 | 0.00 | 0.00 | 65 | 1012.8 |
| 20260503044532 | 5 | 360 | 8.0 | 17.7 | 0.00 | 0.00 | 0.00 | 66 | 1012.9 |
| 20260503043027 | 4 | 178 | 4.8 | 16.1 | 0.00 | 0.00 | 0.00 | 69 | 1013.2 |
| 20260503041626 | 4 | 204 | 3.2 | 12.9 | 0.00 | 0.00 | 0.00 | 71 | 1013.4 |
| 20260503040022 | 4 | 360 | 6.4 | 17.7 | 0.00 | 0.00 | 0.00 | 72 | 1013.6 |
| 20260503034519 | 4 | 360 | 4.8 | 19.3 | 0.00 | 0.00 | 0.00 | 73 | 1013.7 |
| 20260503033025 | 4 | 360 | 6.4 | 12.9 | 0.00 | 0.00 | 0.00 | 73 | 1013.9 |
| 20260503031517 | 4 | 360 | 6.4 | 17.7 | 0.00 | 0.00 | 0.00 | 72 | 1014.0 |
| 20260503030014 | 4 | 360 | 6.4 | 17.7 | 0.00 | 0.00 | 0.00 | 71 | 1014.3 |
| 20260503024517 | 4 | 360 | 4.8 | 12.9 | 0.00 | 0.00 | 0.00 | 70 | 1014.4 |
| 20260503023013 | 5 | 360 | 4.8 | 16.1 | 0.00 | 0.00 | 0.00 | 69 | 1014.5 |
| 20260503021512 | 5 | 360 | 6.4 | 19.3 | 0.00 | 0.00 | 0.00 | 67 | 1014.7 |
| 20260503020012 | 5 | 360 | 3.2 | 11.3 | 0.00 | 0.00 | 0.00 | 65 | 1014.6 |
| 20260503014511 | 5 | 360 | 4.8 | 14.5 | 0.00 | 0.00 | 0.00 | 63 | 1014.6 |
| 20260503013010 | 5 | 360 | 3.2 | 12.9 | 0.00 | 0.00 | 0.00 | 61 | 1014.7 |
| 20260503011511 | 6 | 360 | 3.2 | 12.9 | 0.00 | 0.00 | 0.00 | 59 | 1014.6 |
| 20260503010013 | 6 | 360 | 9.7 | 14.5 | 0.00 | 0.00 | 0.00 | 56 | 1014.7 |
| 20260503004520 | 6 | 360 | 9.7 | 22.5 | 0.00 | 0.00 | 0.00 | 53 | 1014.8 |
| 20260503003008 | 7 | 360 | 4.8 | 17.7 | 0.00 | 0.00 | 0.00 | 52 | 1014.8 |
| 20260503001507 | 7 | 360 | 9.7 | 16.1 | 0.00 | 0.00 | 0.00 | 53 | 1014.7 |
| 20260503000006 | 7 | 223 | 6.4 | 14.5 | 0.00 | 0.00 | 0.00 | 61 | 1014.8 |
| 20260502234505 | 7 | 265 | 11.3 | 19.3 | 0.00 | 0.00 | 0.00 | 63 | 1015.0 |
| 20260502233008 | 7 | 360 | 11.3 | 25.7 | 0.00 | 0.00 | 0.00 | 62 | 1015.1 |
| 20260502231502 | 7 | 284 | 14.5 | 27.4 | 0.00 | 0.00 | 0.00 | 61 | 1015.2 |
| 20260502230101 | 7 | 360 | 16.1 | 27.4 | 0.00 | 0.00 | 0.00 | 62 | 1015.3 |
| 20260502224612 | 8 | 266 | 11.3 | 25.7 | 0.00 | 0.00 | 0.00 | 63 | 1015.4 |
| 20260502223057 | 8 | 360 | 8.0 | 17.7 | 0.00 | 0.00 | 0.00 | 57 | 1015.6 |
| 20260502221557 | 8 | 254 | 4.8 | 11.3 | 0.00 | 0.00 | 0.00 | 56 | 1015.7 |
| 20260502220054 | 8 | 287 | 4.8 | 19.3 | 0.00 | 0.00 | 0.00 | 59 | 1016.0 |
| 20260502214553 | 8 | 302 | 6.4 | 17.7 | 0.00 | 0.00 | 0.00 | 50 | 1016.1 |
| 20260502213108 | 9 | 287 | 8.0 | 12.9 | 0.00 | 0.00 | 0.00 | 44 | 1016.2 |
| 20260502211610 | 9 | 266 | 4.8 | 12.9 | 0.00 | 0.00 | 0.00 | 39 | 1016.2 |
| 20260502210049 | 8 | 290 | 6.4 | 16.1 | 0.00 | 0.00 | 0.00 | 46 | 1016.4 |
| 20260502204547 | 9 | 360 | 9.7 | 16.1 | 0.00 | 0.00 | 0.00 | 41 | 1016.6 |
| 20260502203046 | 8 | 279 | 6.4 | 16.1 | 0.00 | 0.00 | 0.00 | 48 | 1016.6 |
| 20260502201542 | 8 | 306 | 9.7 | 14.5 | 0.00 | 0.00 | 0.00 | 49 | 1016.8 |
| 20260502200039 | 8 | 308 | 11.3 | 17.7 | 0.00 | 0.00 | 0.00 | 53 | 1017.1 |
| 20260502194538 | 8 | 289 | 9.7 | 19.3 | 0.00 | 0.00 | 0.00 | 52 | 1017.3 |
| 20260502193034 | 8 | 325 | 6.4 | 14.5 | 0.00 | 0.00 | 0.00 | 53 | 1017.5 |
| 20260502191533 | 8 | 300 | 8.0 | 16.1 | 0.00 | 0.00 | 0.00 | 55 | 1017.7 |
| 20260502190038 | 8 | 360 | 9.7 | 16.1 | 0.00 | 0.00 | 0.00 | 54 | 1017.8 |
| 20260502184546 | 8 | 231 | 6.4 | 12.9 | 0.00 | 0.00 | 0.00 | 56 | 1017.9 |
| 20260502183045 | 7 | 292 | 8.0 | 12.9 | 0.00 | 0.00 | 0.00 | 65 | 1018.1 |
| 20260502181534 | 7 | 340 | 9.7 | 17.7 | 0.00 | 0.00 | 0.00 | 70 | 1018.2 |
| 20260502163021 | 6 | 320 | 11.3 | 19.3 | 0.00 | 0.00 | 0.00 | 72 | 1018.6 |
| 20260502161511 | 7 | 244 | 9.7 | 17.7 | 0.00 | 0.00 | 0.00 | 73 | 1018.7 |
| 20260502151604 | 6 | 296 | 9.7 | 17.7 | 0.00 | 0.00 | 0.00 | 79 | 1018.7 |
| 20260502123019 | 3 | 78 | 1.6 | 8.0 | 0.00 | 0.00 | 0.00 | 95 | 1019.0 |
| 20260502121515 | 2 | 348 | 1.6 | 11.3 | 0.00 | 0.00 | 0.00 | 98 | 1018.9 |
| 20260502114507 | 0 | 259 | 1.6 | 9.7 | 0.00 | 0.00 | 0.00 | 97 | 1018.9 |
| 20260502113002 | 0 | 329 | 1.6 | 9.7 | 0.00 | 0.00 | 0.00 | 97 | 1018.9 |
| 20260502111559 | 0 | 75 | 1.6 | 4.8 | 0.00 | 0.00 | 0.00 | 96 | 1018.8 |
| 20260502110053 | 0 | 74 | 1.6 | 4.8 | 0.00 | 0.00 | 0.00 | 96 | 1018.9 |
| 20260502104652 | -1 | 73 | 1.6 | 4.8 | 0.00 | 0.00 | 0.00 | 95 | 1018.9 |
| 20260502103049 | 0 | 72 | 1.6 | 4.8 | 0.00 | 0.00 | 0.00 | 95 | 1018.9 |
| 20260502101616 | 0 | 343 | 0.0 | 8.0 | 0.00 | 0.00 | 0.00 | 95 | 1018.8 |
| 20260502090104 | 0 | 322 | 1.6 | 9.7 | 0.00 | 0.00 | 0.00 | 94 | 1018.6 |
| 20260502071529 | 0 | 355 | 0.0 | 4.8 | 0.00 | 0.00 | 0.00 | 88 | 1018.4 |
| 20260502070044 | 0 | 360 | 0.0 | 3.2 | 0.00 | 0.00 | 0.00 | 86 | 1018.4 |
| 20260502064522 | 1 | 327 | 0.0 | 3.2 | 0.00 | 0.00 | 0.00 | 85 | 1018.6 |
| 20260502063018 | 1 | 340 | 0.0 | 4.8 | 0.00 | 0.00 | 0.00 | 84 | 1018.6 |
| 20260502061516 | 2 | 339 | 0.0 | 3.2 | 0.00 | 0.00 | 0.00 | 83 | 1018.6 |
| 20260502060015 | 2 | 346 | 1.6 | 8.0 | 0.00 | 0.00 | 0.00 | 82 | 1018.6 |
| 20260502054513 | 2 | 323 | 3.2 | 8.0 | 0.00 | 0.00 | 0.00 | 80 | 1018.6 |
| 20260502053011 | 2 | 345 | 3.2 | 6.4 | 0.00 | 0.00 | 0.00 | 79 | 1018.5 |
| 20260502051509 | 2 | 325 | 3.2 | 8.0 | 0.00 | 0.00 | 0.00 | 79 | 1018.5 |